Погода Хмельницкий

Погода Хмельницкий : погода сейчас, прогноз погоды и архив. Всё, что Вы хотите узнать о погоде Хмельницкий!

Хотите узнать прогноз погоды Хмельницкий? Тогда Вам сюда: Погода Хмельницкий

Поиск расширенной информации на нашем сайте:

Другие новости

Новости СМИ2

Главная страница сайта

Новости сайта

02.10.2013

Напоминаем, что на нашем новом сайте вы можете получить высокодетализированные прогнозы погоды по пунктам России, СНГ и мира (включающие важные для авиации метеовеличины, такие как направление и скорость ветра, видимость, явления погоды, количество и форма облачности, нижняя и верхняя граница облачности), а также ознакомиться с разнообразными материалами по авиационной метеорологии и подборкой полезных ссылок на эту тему.

Сайт Метеоцентр.Азия посвящён разработке технологий оптимизации авиаметеорологического обслуживания, включая проектирование и перспективное создание нескольких автоматизированных авиаметеорологических систем:
- система выпуска высокодетальных прогностических карт явлений погоды для нижнего воздушного пространства по России и ближнему зарубежью;
- система верификации прогнозов TAF (выпускаемых синоптиками официальных АМСГ РФ и ближнего зарубежья) и AUTOTAF (выпускаемых сайтом Метеоцентр.Азия) - выявление ошибок, онлайн-сопоставление с фактической погодой METAR, автоматическое внесение коррективов в прогнозы при резком отклонении фактической погоды от прогноза, подсчёт оправдываемости прогнозов по элементам и в целом;
- система обработки, анализа и отображения авиаметеорологической информации для применения провайдерами метеорологической информации.


Погода Хмельницкий - сегодня

Время (UTC), дата Ветер
(°,м/с) 
Видим.   Явления Облачность Т
(°С)
Тd
(°С)
f(%) Тe
(°С)
Pmin
(гПа)
dP
(гПа)
Po
(мм)
O2
(г/м3)
Тmin Tmax R s Состояние
почвы
00 23.06.17 210 (ЮЗ) 10 км    9/0 верхняя 
[Ci fib]
+15.2 +10.5 73 +17  1012.1  -1.2  729  276           
03 23.06.17 190 (Ю) 10 км    9/0 верхняя 
[Ci fib]
+15.4 +11.2 76 +18  1010.2  -1.8  727  275           
06 23.06.17 200 (Ю) 20000 м    9/3 1000 м верхняя 
[Cu hum|Ci fib]
+19.8 +14 69 +28  1008.4  -1.1  726  270  +14.2         
09 23.06.17 230 (ЮЗ) 10 км  слаб. ливневой дождь  10/6 1000 м кучево-дожд., средняя 
[Cb calv|Ac und]
+20.8 +16.2 75 +33  1007.3  -0.9  726  268           
12 23.06.17 220 (ЮЗ) 20000 м  в посл. час ливневой дождь  9/3 1000 м кучево-дожд., средняя 
[Cb calv|Ac trans]
+19.2 +16.2 83 +32  1005.7  -1.7  725  269      0.5     
15 23.06.17 240 (ЮЗ) 20000 м    8/4 1000 м кучево-дожд., средняя, верхняя 
[Cb calv|Ac trans|Ci fib]
+23.4 +16.7 66 +36  1003.1  -2  723  265           
21 23.06.17 260 (З) 10 км    4/0 верхняя 
[Ci fib]
+15.4 +14.4 94 +24  1007.4  0.6  725  274           
00 24.06.17 340 (С) 10 км  в посл. час ливневой дождь  8/3 1000 м кучево-дожд., средняя 
[Cb calv|Ac trans]
+15.2 +14.5 96 +24  1009.2  1.7  727  274      0.8     
03 24.06.17 320 (СЗ) 10 км    10/6 450 м кучево-дожд., средняя 
[Cb calv|Ac und]
+14.6 +13.5 93 +21  1010.9  1.6  728  276           
06 24.06.17 290 (З) 10 км    9/8 420 м кучево-дожд., средняя 
[Cb calv|Ac trans]
+17.6 +13.8 78 +25  1011.3  0.8  728  273  +13.8    0.8     
09 24.06.17 240 (ЮЗ) 10 км  {ливн. осадки}  10/10 450 м кучево-дожд. 
[Cb calv]
+17.7 +15.2 85 +28  1011.8  0.5  729  272           
12 24.06.17 270 (З) 10 км  {ливн. осадки}  10/10 540 м кучево-дожд. 
[Cb calv]
+19.8 +15.3 75 +30  1011.3  -0.2  729  270           
15 24.06.17 280 (З) 10 км    8/4 600 м верхняя 
[Sc|Ci fib]
+20.7 +13.1 62 +27  1011.6  0.4  729  270           
18 24.06.17 280 (З) 10 км    8/0 средняя, верхняя 
[Ac trans|Ci fib]
+19.1 +14 72 +28  1012.7  0.8  729  272    +21.6  0.0     
21 24.06.17 260 (З) 10 км    8/0 средняя, верхняя 
[Ac trans|Ci fib]
+15.6 +12.2 80 +21  1013.7  0.5  730  276           
00 25.06.17 230 (ЮЗ) 10 км    10/3 600 м средняя 
[Sc|Ac und]
+16.4 +14.7 90 +26  1013.9  0.3  730  274           
03 25.06.17 тихо ()   10 км    9/0 средняя, верхняя 
[Ac trans|Ci fib]
+16.8 +15.3 91 +27  1014  0.2  730  274           
06 25.06.17 190 (Ю) 10 км    3/0 верхняя 
[Ci fib]
+21.4 +15.8 70 +32  1013.2  -0.2  730  269  +15.2         
09 25.06.17 190 (Ю) 10 км    3/0 верхняя 
[Ci fib]
+25.9 +14.7 50 +35  1011.8  -0.7  730  265           
12 25.06.17 210 (ЮЗ) 20000 м    4/3 600 м верхняя 
[Cu med, cong|Ci fib]
+27.5 +14.1 44 +35  1010.8  -0.8  729  264           
15 25.06.17 270 (З) 20000 м    9/6 1000 м кучево-дожд., верхняя 
[Cb calv|Ci fib]
+26.2 +15.5 52 +37  1010.2  -0.7  728  265           
18 25.06.17 180 (Ю) 10 км    8/3 1000 м средняя, верхняя 
[Sc|Ac trans|Ci fib]
+23.4 +15.9 63 +35  1009.6  -1  728  267    +28.3       
21 25.06.17 210 (ЮЗ) 10 км    4/0 верхняя 
[Ci fib]
+19.9 +15.8 77 +32  1010.6  0.5  728  270           
00 26.06.17 230 (ЮЗ) 10 км    6/0 верхняя 
[Ci fib]
+18 +15.8 87 +30  1010.8  728  272           
03 26.06.17 240 (ЮЗ) 10 км    8/0 средняя, верхняя 
[Ac trans|Ci fib]
+16.8 +15.5 92 +28  1010.4  -0.6  728  273           
Время (UTC), дата Ветер
(°,м/с) 
Видим.   Явления Облачность Т
(°С)
Тd
(°С)
f(%) Тe
(°С)
Pmin
(гПа)
dP
(гПа)
Po
(мм)
O2
(г/м3)
Тmin Tmax R s Состояние
почвы

Для получения пояснительной информации подведите курсор к названию столбца.

ПОГОДА Хмельницкий - архив

Всё, что Вы хотите узнать о погоде Хмельницкий - удобно и подробно!

Выберите нужную дату (начиная с 1 января 2015* года) и нажмите кнопку "Найти".
Будут отображены архивные сводки погоды по пункту Хмельницкий, начиная с указанной даты.


Отображать данные в формате CSV (для использования в таблицах Excel)


Внимание! Наш архив погоды предназначен исключительно для личного некоммерческого использования в познавательных целях. Если Вам необходимы официальные справки о состоянии погоды (для производственных, юридических, коммерческих и т.п. целей), обращайтесь в органы Росгидромета.

*Примечание: данная дата относится к архиву по метеостанциям СССР (Россия, СНГ, Балтия).
Архив по метеостанциям Зарубежной Европы и Азии (кроме Китая) хранится 10 дней, по другим регионам земного шара (Китай, Африка, Америка, Австралия, Океания) - 1 день.

Хмельницкий - район местоположения метеостанции


Название, широта, долгота, высота метеостанции:
Хмельницкий 49.4°ш. 27°д. 350 м над ур. моря [Украина]

Дополнительная информация

В oтличие oт бoльшинства пoгoдных сайтoв мы публикуем пoдрoбную метеoинфoрмацию в детальнoм прoфессиoнальнoм фoрмате.

Характеристики температуры и влажнoсти вoздуха измеряются на высoте 2 м в тени вдали oт зданий и деревьев.
Скoрoсть ветра измеряется на высoте 10 м (на урoвне рoста челoвека скoрoсть ветра ниже в 1.5-2 раза). Если метеoстанция нахoдится в гoрoде или в лесу, тo скoрoсть ветра занижена на 2-4 м/с пo сравнению с oткрытым местoм. Скoрoсть ветра над акватoриями крупных рек и oзёр, а также на вершинах хoлмoв на 2-5 м/с выше, чем в oбычных услoвиях.
Атмoсфернoе давление в разных тoчках местнoсти мoжет значительнo oтличаться oт давления на метеoстанции, в зависимoсти oт услoвий рельефа (при пoдъёме на 10 м давление пoнижается примернo на 1 мм рт.ст.).